User: anonymous   Login
Location: Unspecified
(0.0000°N, 0.0000°E)
Time: 01:08:37
(UTC+00:00)
Language:

NOSS 2-2 (D) - Orbit

View from above orbital plane
View from above orbital plane
View from above satellite
View from above satellite

Ground track
Ground track

The orbit data is extracted from the following two-line orbital elements,

1 21808U 91076D   17288.72517277 0.00000260  00000-0  80528-4 0    04
2 21808  63.3470 148.8901 0757000  26.2092 333.7908 13.41147805    02
Epoch (UTC): 15 October 2017 17:24:14
Eccentricity: 0.0757000
inclination: 63.3470°
perigee height: 538 km
apogee height: 1671 km
right ascension of ascending node: 148.8901°
argument of perigee: 26.2092°
revolutions per day: 13.41147805
mean anomaly at epoch: 333.7908°
orbit number at epoch: 0

The dashed part of the orbit path shows where the satellite is in the earth's shadow,  

DLR